[Date Prev][Date Next][Thread Prev][Thread Next] - [Date Index][Thread Index][Author Index]

2 Line ISS Keps 4-13



ISS
1 25544U 98067A   04103.79666959  .00018290  00000-0  16484-3 0  5559
2 25544  51.6284 299.0080 0010764  25.9810  64.1481 15.68182050308055

----
Via the sarex mailing list at AMSAT.ORG courtesy of AMSAT-NA.
To unsubscribe, send "unsubscribe sarex" to Majordomo@amsat.org



AMSAT Top AMSAT Home